{"data":{"norad_id":62294,"epoch":"2026-05-25T01:55:49.175328Z","epoch_age_seconds":71648,"freshness":"FRESH","line1":"1 62294U 24238E   26145.08043027 -.00000051  00000+0  70335-4 0  9992","line2":"2 62294  59.9134 340.9183 0013694 356.9717   3.1206 13.75188158 72733","mean_motion":13.75188158,"eccentricity":0.0013694,"inclination_deg":59.9134,"raan_deg":340.9183,"arg_perigee_deg":356.9717,"mean_anomaly_deg":3.1206,"bstar":7.0335e-5,"rev_number":7273,"period_min":104.71294357961,"perigee_km":970.92585136313,"apogee_km":991.08106525034,"semimajor_km":7359.1404583067,"source":"CELESTRAK","updated_at":"2026-05-25T13:38:02.904893Z"}}